Regional Weather Roundup
Issued by NWS

Home | Current Version | Previous Version | Text Only | Print | Product List | Glossary On
Versions: 1 2 3 4 5 6 7 8 9 10 11 12 13 14 15 16 17 18 19 20 21 22 23 24 25 26 27 28 29 30 31 32 33 34 35 36 37 38 39 40 41 42 43 44 45 46 47 48 49 50
744
ASUS44 KJAN 231003
RWRMS

MISSISSIPPI HOURLY WEATHER ROUNDUP
NATIONAL WEATHER SERVICE JACKSON MS
400 AM CST SUN NOV 23 2014

NOTE: "FAIR: INDICATES FEW OR NO CLOUDS BELOW 12,000 FEET WITH NO
SIGNIFICANT WEATHER AND/OR OBSTRUCTIONS TO VISIBILITY.

MSZ001>002-007>008-010>013-018>021-025>028-034>036-231100-
NORTHWEST MISSISSIPPI

CITY           SKY/WX    TMP DP  RH WIND       PRES   REMARKS
CLARKSDALE     CLOUDY    59  57  94 SE10      29.79F
CLEVELAND      CLOUDY    58  56  94 E7        29.76F
GREENWOOD      CLOUDY    61  57  87 SE8       29.79F
GREENVILLE     CLOUDY    60  56  86 SE14      29.75F
GRENADA        CLOUDY    55  54  94 E8        29.82F FOG
OLIVE BRANCH   CLOUDY    57  57 100 SE12G20   29.81F
OXFORD         CLOUDY    55  54  94 SE10G18   29.85F FOG
TUNICA         CLOUDY    59  54  82 SE10      29.79F
$$

MSZ003>006-009-014>017-022>024-029>033-037>039-231100-
NORTHEAST MISSISSIPPI

CITY           SKY/WX    TMP DP  RH WIND       PRES   REMARKS
COLUMBUS AFB   CLOUDY    59  54  83 SE15      29.85F
CORINTH        DRIZZLE   57  54  88 SE6       29.87F
GOLDN TRIANGLE CLOUDY    57  54  88 SE15      29.85F
STARKVILLE     CLOUDY    55  54  94 SE13      29.84F
TUPELO         CLOUDY    58  53  84 MISG      29.86F
$$

MSZ040-058-231100-
CENTRAL MISSISSIPPI

CITY           SKY/WX    TMP DP  RH WIND       PRES   REMARKS
JACKSON INTL   CLOUDY    61  58  90 SE12      29.79F
JACKSON HAWKNS CLOUDY    61  58  90 SE13      29.77F
MERIDIAN KEY   CLOUDY    58  56  93 E6        29.84F
MERIDIAN NAS   CLOUDY    56  55  97 E12       29.85F FOG
RAYMOND        CLOUDY    61  55  82 SE8G17    29.78S
VICKSBURG      CLOUDY    62  58  86 SE18G25   29.75F
$$

MSZ059>079-231100-
SOUTH MISSISSIPPI

CITY           SKY/WX    TMP DP  RH WIND       PRES   REMARKS
BROOKHAVEN     CLOUDY    61  61 100 SE7       29.80F FOG
HATTIESBURG    CLOUDY    60  59  96 E5        29.81F FOG
MCCOMB         CLOUDY    61  59  93 SE7       29.78F
NATCHEZ        CLOUDY    63  57  82 SE13      29.77S
PINE BELT      CLOUDY    59  55  88 E5        29.82F
$$

MSZ080>082-231100-
COASTAL MISSISSIPPI

CITY           SKY/WX    TMP DP  RH WIND       PRES   REMARKS
BILOXI         MOCLDY    63  63 100 E8        29.78F FOG
PASCAGOULA     LGT RAIN  64  63  96 NE7       29.80F FOG
GULFPORT       CLOUDY    63  63 100 E8        29.78F FOG
$$



USA.gov is the U.S. government's official web portal to all federal, state and local government web resources and services.